Terminal Aerodrome Forecast
Issued by NWS Buffalo, NY

Home | Current Version | Previous Version | Text Only | Print | Product List | Glossary On
Versions: 1 2 3 4 5 6 7 8 9 10 11 12 13 14 15 16 17 18 19 20 21 22 23 24
000
FTUS41 KBUF 210900 AAA
TAFART
TAF AMD
KART 210916Z 2109/2206 18007KT P6SM BKN150
     FM211300 20009KT P6SM BKN120
     FM212300 VRB03KT P6SM BKN090
     FM220400 18004KT P6SM VCSH OVC100=

USA.gov is the U.S. government's official web portal to all federal, state and local government web resources and services.